Weather reports worldwide

Advertisment
Northolt, United Kingdom (3672): temperature & dewpoint: 17.09.2020 01:00:00 - 23.09.2020 01:00:00 (BST)Northolt, United Kingdom (3672): temperature -20cm & temperature -100cm: 17.09.2020 01:00:00 - 23.09.2020 01:00:00 (BST)Northolt, United Kingdom (3672): wind speed & gusts: 17.09.2020 01:00:00 - 23.09.2020 01:00:00 (BST)Northolt, United Kingdom (3672): wind direction: 17.09.2020 01:00:00 - 23.09.2020 01:00:00 (BST)Northolt, United Kingdom (3672): reduced air pressure: 17.09.2020 01:00:00 - 23.09.2020 01:00:00 (BST)Northolt, United Kingdom (3672): visibility: 17.09.2020 01:00:00 - 23.09.2020 01:00:00 (BST)Northolt, United Kingdom (3672): precipitation: 17.09.2020 01:00:00 - 23.09.2020 01:00:00 (BST)
Date & Time tt [°C] td [°C] tt -20cm [°C] tt -100cm [°C] ff [km/h] ff [kn] fx [km/h] fx [kn] dd ppp [hPa] vv [km] rr [mm]
23.09.2020 01:00:00 16,0 14,0 - - 13 7 - - SW - 10 -
23.09.2020 00:00:00 16,5 14,1 - - 15 8 - - SW 1004,8 10 0,0
22.09.2020 23:00:00 16,5 13,8 - - 11 6 - - SSW 1005,0 10 0,0
22.09.2020 22:00:00 17,6 13,9 - - 13 7 - - WSW 1005,8 10 0,0
22.09.2020 21:00:00 17,9 14,6 - - 13 7 - - SW 1005,9 10 0,0
22.09.2020 20:00:00 18,0 14,2 - - 18 10 - - SW 1006,1 10 0,0
22.09.2020 19:00:00 18,9 14,2 - - 18 10 - - WSW 1006,3 10 0,0
22.09.2020 18:00:00 19,7 14,0 - - 21 11 - - SW 1006,2 10 0,0
22.09.2020 17:00:00 20,9 14,3 - - 22 12 - - SSW 1006,5 10 0,0
22.09.2020 16:00:00 23,1 14,0 - - 26 14 - - SW 1007,2 30 0,0
22.09.2020 15:00:00 24,0 12,0 - - 21 11 - - SSW 1007,6 10 0,0
22.09.2020 14:00:00 24,0 7,2 - - 21 11 - - SW 1008,5 10 0,0
22.09.2020 13:00:00 23,9 10,4 - - 16 9 - - SW 1009,2 10 0,0
22.09.2020 12:00:00 22,8 10,0 - - 15 8 - - SW 1010,1 30 0,0
22.09.2020 11:00:00 21,5 10,2 - - 15 8 - - SSW 1010,8 25 0,0
22.09.2020 10:00:00 19,3 14,1 17,7 17,0 8 4 - - SW 1011,1 10 0,0
22.09.2020 09:00:00 14,7 13,8 - - 2 1 - - SW 1011,6 10 0,0
22.09.2020 08:00:00 12,1 11,6 - - 0 0 - - N 1011,9 9 0,0
22.09.2020 07:00:00 11,4 10,5 - - 0 0 - - N 1011,8 8 0,0
22.09.2020 06:00:00 11,5 11,0 - - 2 1 - - S 1012,3 7 0,0
22.09.2020 05:00:00 11,5 11,0 - - 0 0 - - N 1012,5 14 0,0
22.09.2020 04:00:00 11,6 11,0 - - 2 1 - - W 1013,0 9 0,0
22.09.2020 03:00:00 12,1 11,4 - - 2 1 - - NNW 1013,6 10 0,0
22.09.2020 02:00:00 12,9 12,1 - - 2 1 - - NNW 1014,2 10 0,0
22.09.2020 01:00:00 13,4 12,5 - - 2 1 - - NNW 1014,7 12 0,0
22.09.2020 00:00:00 14,3 12,6 - - 2 1 - - W 1015,1 15 0,0
21.09.2020 23:00:00 15,1 12,7 - - 0 0 - - N 1015,3 10 0,0
21.09.2020 22:00:00 15,8 12,9 - - 4 2 - - NNW 1015,5 10 0,0
21.09.2020 21:00:00 17,2 12,4 - - 2 1 - - WSW 1015,5 10 0,0
21.09.2020 20:00:00 19,3 12,9 - - 5 3 - - W 1015,5 10 0,0
21.09.2020 19:00:00 21,6 12,8 - - 4 2 - - W 1015,5 10 0,0
21.09.2020 18:00:00 23,2 12,6 - - 5 3 - - W 1015,5 10 0,0
21.09.2020 17:00:00 24,2 12,3 - - 2 1 - - SSW 1015,7 10 0,0
21.09.2020 16:00:00 23,3 11,8 - - 4 2 - - SSW 1016,3 10 0,0
21.09.2020 15:00:00 23,3 12,5 - - 5 3 - - WNW 1016,9 10 0,0
21.09.2020 14:00:00 22,0 11,8 - - 4 2 - - SSE 1017,4 10 0,0
21.09.2020 13:00:00 20,3 12,7 - - 5 3 - - SSE 1017,8 25 0,0
21.09.2020 12:00:00 17,6 12,5 - - 8 4 - - E 1018,6 10 0,0
21.09.2020 11:00:00 15,2 12,8 - - 9 5 - - ENE 1018,9 10 0,0
21.09.2020 10:00:00 13,7 12,5 - - 8 4 - - N 1019,0 7 0,0
21.09.2020 09:00:00 13,5 12,6 - - 5 3 - - NNE 1018,9 6 0,0
21.09.2020 08:00:00 13,5 12,5 - - 9 5 - - E 1018,6 6 0,0
21.09.2020 07:00:00 13,7 12,7 - - 9 5 - - ENE 1018,4 7 0,0
21.09.2020 06:00:00 14,0 13,0 - - 9 5 - - NE 1018,5 10 0,0
21.09.2020 05:00:00 14,3 12,8 - - 11 6 - - NNE 1018,8 14 0,0
21.09.2020 04:00:00 14,5 12,5 - - 9 5 - - NNE 1018,6 18 0,0
21.09.2020 03:00:00 14,4 12,4 - - 8 4 - - NNE 1019,0 10 0,0
21.09.2020 02:00:00 14,7 12,6 - - 5 3 - - ENE 1019,4 20 0,0
21.09.2020 01:00:00 14,7 12,2 - - 9 5 - - NE 1019,5 25 0,0
21.09.2020 00:00:00 15,4 11,9 - - 11 6 - - ENE 1019,6 30 0,0
20.09.2020 23:00:00 16,3 11,6 - - 15 8 - - NE 1019,7 10 0,0
20.09.2020 22:00:00 17,8 11,3 - - 11 6 - - ENE 1019,4 10 0,0
20.09.2020 21:00:00 19,0 11,5 - - 15 8 - - ENE 1019,3 10 0,0
20.09.2020 20:00:00 20,2 11,4 - - 13 7 - - NE 1018,9 40 0,0
20.09.2020 19:00:00 21,6 11,3 - - 15 8 - - NE 1018,4 40 0,0
20.09.2020 18:00:00 23,1 10,9 - - 21 11 - - NE 1018,1 10 0,0
20.09.2020 17:00:00 24,0 10,5 - - 21 11 - - NE 1018,0 10 0,0
20.09.2020 16:00:00 24,2 10,7 - - 21 11 - - NE 1018,0 10 0,0
20.09.2020 15:00:00 24,1 10,9 - - 21 11 - - NE 1018,2 10 0,0
20.09.2020 14:00:00 23,2 11,2 - - 21 11 - - ENE 1018,5 10 0,0
20.09.2020 13:00:00 21,9 11,7 - - 21 11 - - NE 1018,9 10 0,0
20.09.2020 12:00:00 20,5 12,2 - - 21 11 - - NE 1019,1 30 0,0
20.09.2020 11:00:00 19,1 12,1 - - 24 13 - - NE 1019,1 10 0,0
20.09.2020 10:00:00 17,0 12,8 - - 18 10 - - NE 1019,4 10 0,0
20.09.2020 09:00:00 15,4 12,6 - - 16 9 - - NE 1019,1 10 0,0
20.09.2020 08:00:00 14,3 12,5 - - 18 10 - - NNE 1018,8 10 0,0
20.09.2020 07:00:00 13,9 12,3 - - 15 8 - - NE 1018,5 10 0,0
20.09.2020 06:00:00 13,8 12,2 - - 15 8 - - NNE 1018,2 10 0,0
20.09.2020 05:00:00 13,8 12,1 - - 13 7 - - NNE 1018,0 10 0,0
20.09.2020 04:00:00 13,9 11,9 - - 11 6 - - NE 1018,2 20 0,0
20.09.2020 03:00:00 14,0 11,8 - - 13 7 - - NNE 1018,3 10 0,0
20.09.2020 02:00:00 14,4 11,7 - - 16 9 - - NE 1018,3 23 0,0
20.09.2020 01:00:00 14,8 11,8 - - 15 8 - - NE 1018,3 10 0,0
20.09.2020 00:00:00 15,1 11,6 - - 16 9 - - NE 1018,3 10 0,0
19.09.2020 23:00:00 15,9 11,0 - - 18 10 - - NE 1018,2 10 -
19.09.2020 22:00:00 16,9 10,2 - - 21 11 - - NE 1018,0 30 0,0
19.09.2020 21:00:00 18,5 9,4 - - 22 12 - - ENE 1017,7 35 0,0
19.09.2020 20:00:00 19,9 7,7 - - 16 9 - - ENE 1017,3 35 0,0
19.09.2020 19:00:00 21,2 7,5 - - 24 13 - - ENE 1016,3 40 0,0
19.09.2020 18:00:00 22,7 7,0 - - 28 15 - - ENE 1015,8 10 0,0
19.09.2020 17:00:00 23,3 7,2 - - 29 16 - - ENE 1015,7 10 0,0
19.09.2020 16:00:00 23,8 8,3 - - 28 15 - - ENE 1015,7 10 0,0
19.09.2020 15:00:00 23,4 8,3 - - 29 16 - - ENE 1015,9 10 0,0
19.09.2020 14:00:00 23,2 8,7 - - 28 15 - - ENE 1016,3 10 0,0
19.09.2020 13:00:00 22,4 10,2 - - 28 15 - - ENE 1016,9 10 0,0
19.09.2020 12:00:00 21,1 11,3 - - 28 15 - - ENE 1017,2 10 0,0
19.09.2020 11:00:00 19,4 11,9 - - 22 12 - - ENE 1017,6 10 0,0
19.09.2020 10:00:00 17,1 12,0 17,5 17,0 24 13 - - NE 1017,7 10 0,0
19.09.2020 09:00:00 15,0 11,7 - - 24 13 - - NE 1017,7 30 0,0
19.09.2020 08:00:00 13,7 11,4 - - 18 10 - - NE 1017,9 25 0,0
19.09.2020 07:00:00 12,8 11,0 - - 16 9 - - NE 1018,0 10 0,0
19.09.2020 06:00:00 12,9 10,7 - - 18 10 - - NE 1018,1 10 0,0
19.09.2020 05:00:00 13,0 10,7 - - 18 10 - - NE 1018,3 28 0,0
19.09.2020 04:00:00 13,0 10,6 - - 16 9 - - NE 1018,4 30 0,0
19.09.2020 03:00:00 12,8 10,3 - - 16 9 - - NE 1018,7 10 0,0
19.09.2020 02:00:00 13,2 10,2 - - 18 10 - - NE 1019,2 30 0,0
19.09.2020 01:00:00 14,2 10,5 - - 16 9 - - NE 1019,8 30 0,0
19.09.2020 00:00:00 14,4 10,3 - - 15 8 - - NE 1020,6 30 0,0
18.09.2020 23:00:00 14,8 10,4 - - 16 9 - - NE 1021,1 30 0,0
18.09.2020 22:00:00 15,5 10,5 - - 18 10 - - ENE 1021,0 30 0,0
18.09.2020 21:00:00 16,2 10,2 - - 18 10 - - ENE 1021,0 10 -
18.09.2020 20:00:00 17,1 9,5 - - 21 11 - - ENE 1020,8 40 0,0
18.09.2020 19:00:00 18,3 7,8 - - 22 12 - - E 1020,3 40 0,0
18.09.2020 18:00:00 19,4 7,2 - - 24 13 - - E 1020,2 40 0,0
18.09.2020 17:00:00 20,2 6,2 - - 29 16 - - E 1020,7 10 0,0
18.09.2020 16:00:00 20,5 6,9 - - 24 13 46 25 E 1020,9 10 0,0
18.09.2020 15:00:00 21,2 7,2 - - 31 17 - - ENE 1021,4 10 0,0
18.09.2020 14:00:00 20,2 7,0 - - 34 18 48 26 E 1021,9 10 0,0
18.09.2020 13:00:00 19,6 8,2 - - 29 16 - - E 1022,7 10 0,0
18.09.2020 12:00:00 19,2 9,8 - - 28 15 46 25 ENE 1023,3 40 0,0
18.09.2020 11:00:00 17,6 10,3 - - 26 14 - - ENE 1024,0 10 0,0
18.09.2020 10:00:00 15,9 10,6 17,9 17,0 26 14 - - ENE 1024,0 10 0,0
18.09.2020 09:00:00 12,8 9,2 - - 13 7 - - NNE 1024,0 10 0,0
18.09.2020 08:00:00 10,7 8,2 - - 16 9 - - NNE 1024,0 10 0,0
18.09.2020 07:00:00 9,9 7,9 - - 15 8 - - NNE 1024,2 10 0,0
18.09.2020 06:00:00 9,9 8,0 - - 13 7 - - NNE 1024,2 10 0,0
18.09.2020 05:00:00 10,3 8,2 - - 11 6 - - NNE 1024,6 35 0,0
18.09.2020 04:00:00 11,2 8,5 - - 18 10 - - NE 1024,8 40 0,0
18.09.2020 03:00:00 11,6 8,7 - - 16 9 - - NE 1025,3 10 -
18.09.2020 02:00:00 12,2 8,7 - - 18 10 - - NE 1025,5 40 0,0
18.09.2020 01:00:00 11,8 8,4 - - 13 7 - - NNE 1026,0 10 0,0
18.09.2020 00:00:00 12,9 8,7 - - 15 8 - - NE 1026,7 40 0,0
17.09.2020 23:00:00 13,6 8,8 - - 11 6 - - NE 1026,9 10 0,0
17.09.2020 22:00:00 14,4 8,5 - - 21 11 - - ENE 1027,2 10 0,0
17.09.2020 21:00:00 15,3 8,1 - - 21 11 - - E 1027,1 10 0,0
17.09.2020 20:00:00 16,4 7,2 - - 22 12 - - E 1026,5 10 0,0
17.09.2020 19:00:00 18,5 3,5 - - 21 11 - - E 1026,2 10 0,0
17.09.2020 18:00:00 19,9 4,5 - - 24 13 - - E 1026,3 10 0,0
17.09.2020 17:00:00 21,1 5,4 - - 24 13 - - E 1026,3 10 0,0
17.09.2020 16:00:00 21,4 8,2 - - 22 12 - - ENE 1026,7 10 0,0
17.09.2020 15:00:00 21,5 8,7 - - 24 13 - - ENE 1027,4 30 0,0
17.09.2020 14:00:00 20,8 9,0 - - 24 13 - - E 1028,3 10 0,0
17.09.2020 13:00:00 20,2 10,1 - - 26 14 - - ENE 1028,9 28 0,0
17.09.2020 12:00:00 19,1 10,8 - - 24 13 - - E 1029,3 10 0,0
17.09.2020 11:00:00 17,5 10,9 - - 21 11 - - E 1029,4 30 0,0
17.09.2020 10:00:00 15,6 10,3 18,5 17,0 21 11 - - ENE 1029,7 10 0,0
17.09.2020 09:00:00 14,3 10,2 - - 18 10 - - NE 1029,7 30 0,0
17.09.2020 08:00:00 12,8 9,8 - - 16 9 - - NE 1029,5 30 0,0
17.09.2020 07:00:00 12,4 9,8 - - 16 9 - - NE 1029,5 10 0,0
17.09.2020 06:00:00 12,8 9,9 - - 16 9 - - NE 1029,2 10 0,0
17.09.2020 05:00:00 13,3 9,9 - - 15 8 - - NE 1029,1 22 0,0
17.09.2020 04:00:00 13,7 9,9 - - 13 7 - - NE 1029,3 23 0,0
17.09.2020 03:00:00 14,7 10,1 - - 22 12 - - ENE 1029,6 24 0,0
17.09.2020 02:00:00 15,0 11,4 - - 21 11 - - ENE 1029,7 21 0,0
17.09.2020 01:00:00 15,3 11,7 - - 16 9 - - ENE 1029,6 23 0,0

tt = temperature
td = dewpoint
tt -20cm = temperature -20cm
tt -100cm = temperature -100cm
ff = wind speed
fx = gusts
dd = wind direction
ppp = reduced air pressure
vv = visibility
rr = precipitation

Next stations